Location: Unspecified
(0.0000°N, 0.0000°E)
Time: 09:49:02
(UTC+00:00)

NNS O-29 - Pass Details

Date: 04 August 2024
Orbit: 1013 x 1173 km, 90.4° (Epoch: 07 September)

Event Time Altitude Azimuth Distance (km) Brightness Sun altitude
Rises 18:46:44 0° 10° (N) 3,844 10.2 -9.7°
Reaches altitude 10° 18:49:20 10° 14° (NNE) 2,870 9.5 -10.3°
Maximum altitude 18:55:47 64° 94° (E) 1,132 7.1 -11.9°
Drops below altitude 10° 19:02:05 10° 175° (S) 2,805 9.2 -13.4°
Sets 19:04:36 0° 178° (S) 3,751 9.9 -14.0°
